Dewpoint
59 59 59 59 59 59 59 59 59 59 59 60 60 60 60 60 60 60 61 61 61 61 61 61 61 61 61 61 61 61 60 60 60 60 60 61 61 61 61 61 61 61 61 61 61 60 60 58 56 55 55 56 57 58 59 59 60 59 59 60 61 61 62 64 64 65 65 65 66 66 66 66 67 67 67 68 68 68 69 69 70 71 71 72 72 72 72 72 72 73 73 72 71 70 70 69 69 69 69 68 68 69 69
59 59 59 59 59 59 59 59 59 59 59 60 60 60 60 60 60 60 61 61 62 62 62 62 62 62 62 61 61 60 60 60 60 60 60 60 61 61 61 61 61 61 61 61 61 60 60 57 55 54 55 56 57 58 59 59 59 59 59 60 60 60 62 63 64 64 65 65 65 65 66 66 66 66 67 67 67 68 68 69 69 70 71 71 72 72 71 71 72 72 73 73 72 71 70 70 69 69 69 68 68 68 69
59 59 59 59 59 59 59 59 59 59 59 60 60 60 60 60 60 60 61 62 62 63 63 63 63 63 62 61 61 60 60 60 60 60 60 60 60 60 60 61 61 61 61 60 60 60 59 59 56 54 55 55 56 57 58 59 59 58 59 59 60 60 62 63 64 64 64 64 65 65 65 65 66 66 66 67 67 67 67 68 68 69 70 70 71 72 71 70 71 72 73 73 72 72 71 70 70 69 69 68 68 68 68
59 59 59 59 59 59 59 59 59 59 59 60 60 60 60 60 60 61 62 63 63 64 64 64 63 62 61 61 60 60 60 60 60 60 60 60 60 60 60 60 61 61 61 60 59 59 58 58 57 55 55 55 56 56 57 58 59 58 58 59 60 61 62 63 63 64 64 64 64 64 65 65 65 65 66 66 66 66 67 67 68 68 69 69 70 70 70 70 70 71 72 73 73 73 72 71 70 69 69 69 68 68 68
59 59 59 59 59 59 59 59 59 59 59 60 60 60 59 60 60 61 62 63 64 64 64 64 62 61 60 60 60 59 59 59 59 59 59 60 60 60 60 60 60 60 60 60 59 58 56 57 56 55 55 55 55 56 56 58 58 58 58 59 60 61 63 63 63 63 63 64 64 64 64 64 65 65 65 65 66 66 66 66 67 68 68 68 69 70 69 69 70 70 71 72 73 73 73 72 71 70 70 69 69 68 68
59 59 59 59 59 59 59 59 59 59 60 60 59 59 59 60 60 61 62 63 64 64 64 62 61 60 60 59 59 59 59 59 59 59 59 59 60 60 60 60 60 60 60 60 59 59 56 54 54 54 55 55 55 55 55 57 57 57 57 58 60 62 63 63 63 63 63 63 64 64 64 64 64 64 65 65 65 65 65 66 66 67 67 68 68 69 69 69 69 70 71 72 72 72 72 72 72 72 71 70 69 68 68
59 59 59 59 59 59 59 59 59 59 60 59 59 59 59 59 60 60 61 63 64 64 63 61 60 59 59 59 59 59 59 59 59 59 59 59 59 59 59 59 60 60 60 60 59 58 56 53 53 54 54 54 54 55 55 56 56 56 56 58 60 63 63 63 62 62 63 63 63 63 63 64 64 64 64 64 65 65 65 65 65 66 66 67 68 68 68 68 69 69 70 71 72 72 72 72 72 72 72 71 70 69 68
58 59 59 59 59 59 59 59 59 60 60 59 59 59 59 59 59 60 61 62 63 63 62 60 59 59 59 59 59 59 59 59 59 59 59 59 59 59 59 59 59 59 59 60 59 59 57 54 53 53 53 54 55 55 55 55 55 55 55 58 60 62 62 62 62 62 62 63 63 63 63 63 63 64 64 64 64 64 65 64 65 65 66 66 67 67 68 68 68 68 69 70 71 71 71 72 72 72 72 72 71 70 69
58 59 59 59 59 59 59 59 60 60 60 59 59 59 59 59 59 59 60 61 62 62 61 60 59 59 59 59 59 59 59 59 59 59 59 59 59 59 59 59 59 59 59 59 59 59 58 55 53 53 52 53 54 55 55 55 55 55 55 58 59 61 62 62 62 62 62 62 62 62 63 63 63 63 64 64 64 64 64 64 64 65 65 66 66 67 67 68 68 68 68 69 69 70 71 71 71 72 72 72 72 71 70
58 58 59 59 59 59 59 59 59 59 59 59 59 59 59 59 59 59 60 61 61 61 60 59 59 59 59 59 59 59 59 59 59 59 59 59 59 59 59 59 59 59 59 59 59 59 58 55 52 52 52 52 54 55 56 55 55 55 55 59 60 61 61 62 62 62 62 62 62 62 62 62 62 63 63 63 64 64 64 64 64 64 65 65 66 66 67 67 68 68 68 68 69 69 70 71 71 71 72 72 72 72 71
58 58 59 59 59 59 59 59 59 59 59 59 59 59 59 59 59 59 59 60 60 60 59 59 59 59 59 59 59 59 59 59 59 59 59 59 59 59 59 59 59 59 59 59 59 59 58 54 52 51 53 53 54 55 54 55 55 55 55 59 61 61 62 62 62 62 62 62 62 62 62 62 62 62 62 63 63 64 64 64 64 64 64 65 65 66 66 67 67 67 68 68 68 68 69 70 70 71 72 72 72 72 72
57 58 58 59 59 59 59 59 59 59 59 59 59 59 59 59 59 59 59 59 59 59 59 59 58 59 59 59 59 59 59 59 59 59 59 59 59 59 60 60 59 59 59 59 59 58 57 54 52 52 52 52 53 54 54 55 55 55 56 59 61 62 62 62 62 62 62 62 62 62 62 62 62 62 62 62 63 63 64 64 64 64 64 64 65 65 66 66 67 67 67 67 68 68 69 70 70 71 71 71 72 72 72
57 58 58 59 59 59 59 59 59 59 59 59 59 59 59 59 59 59 59 59 59 59 59 58 58 58 59 59 59 59 59 59 59 59 60 60 60 60 60 60 60 59 59 59 58 56 55 53 52 52 52 53 53 53 55 55 55 56 58 61 62 62 62 62 62 62 62 62 61 61 61 61 61 62 62 62 62 63 64 64 64 64 64 64 65 65 65 66 66 67 67 67 67 68 68 69 70 70 70 71 71 72 72
57 57 58 58 59 59 59 58 58 58 58 58 58 58 59 59 59 59 59 59 59 58 58 58 58 58 59 59 59 59 59 60 60 60 60 60 61 61 60 60 60 59 59 58 56 54 53 52 52 52 52 53 53 53 56 56 55 57 60 62 62 62 62 62 62 62 62 61 61 61 61 61 61 61 62 62 62 62 63 64 64 64 65 64 65 65 65 66 66 66 66 67 67 67 68 68 69 70 69 70 71 71 72
57 57 58 58 58 58 58 58 58 58 58 58 58 58 58 59 59 59 59 59 58 58 58 58 58 58 58 59 59 59 59 60 60 60 60 61 61 61 60 60 59 59 58 56 54 52 52 52 52 53 54 53 53 54 56 56 56 58 61 62 62 62 62 62 61 61 61 61 61 61 61 61 61 61 61 62 62 62 63 63 64 64 64 64 64 65 65 65 66 66 66 66 66 66 67 68 68 69 69 69 70 70 71
58 58 58 58 58 58 58 58 58 58 58 58 58 58 58 59 59 59 59 59 58 58 57 57 57 58 58 59 59 59 59 59 60 60 60 60 60 60 60 59 59 58 56 54 53 52 51 52 52 54 55 54 54 55 56 56 57 60 62 62 63 62 62 61 61 61 61 61 61 61 61 61 61 61 61 61 62 62 62 62 63 63 64 64 64 64 65 65 65 65 65 65 66 66 66 67 67 68 68 69 69 69 70
58 58 58 58 58 58 58 58 57 57 57 57 57 57 58 58 59 59 59 59 58 57 57 57 58 58 58 59 59 58 57 57 58 58 59 59 60 59 59 59 58 56 54 53 53 52 52 52 53 55 55 55 55 56 57 56 59 62 63 63 63 63 62 62 62 61 61 61 61 61 61 61 61 61 61 61 61 61 62 62 62 62 63 63 64 64 64 64 64 65 65 65 65 65 65 66 66 67 68 68 68 69 69
57 57 58 58 58 58 58 58 57 57 57 57 57 57 58 58 59 59 59 58 58 57 57 58 58 58 59 58 58 57 55 55 55 56 57 58 59 59 59 58 56 55 53 54 53 52 53 54 55 55 56 56 56 57 58 59 61 63 64 63 63 63 62 62 62 62 62 61 61 61 61 61 61 61 61 61 61 61 61 62 62 62 62 63 63 64 64 64 64 64 64 64 64 65 65 65 66 66 67 67 68 68 68
55 56 57 57 57 57 57 57 57 58 58 58 58 58 58 58 59 59 58 58 58 58 58 58 59 59 59 58 58 57 56 55 55 55 55 56 57 57 57 56 55 54 54 54 53 54 54 55 56 57 57 57 58 59 60 61 64 65 65 64 63 63 62 62 62 62 62 62 62 61 61 61 61 61 61 61 61 61 61 61 61 62 62 62 63 63 63 64 64 64 64 64 64 64 64 64 65 65 66 66 67 67 68
51 53 55 55 56 56 56 56 57 57 57 58 58 58 58 58 58 58 58 58 58 58 58 59 59 59 59 58 57 56 56 55 55 55 55 55 55 55 55 55 55 54 54 54 54 55 55 56 57 58 58 59 59 61 62 64 65 67 67 66 64 63 62 62 62 62 63 63 62 62 61 61 61 61 61 61 61 61 61 61 61 61 61 62 62 62 62 63 63 63 63 64 64 64 64 64 64 65 65 65 66 66 67
45 46 49 51 52 52 52 52 53 55 56 56 55 53 53 55 56 57 57 57 58 58 59 59 58 57 57 57 56 56 55 55 55 55 55 55 55 55 55 55 55 55 54 54 55 55 56 56 57 57 58 59 59 61 63 64 65 67 67 67 65 64 63 62 62 62 63 63 63 62 62 61 61 61 61 61 61 61 61 61 61 61 61 61 61 61 62 62 62 62 62 63 63 63 64 64 64 64 64 64 65 65 66
42 43 44 45 46 47 47 46 48 50 52 54 51 47 47 50 51 53 55 54 55 56 58 57 57 56 56 56 55 55 55 55 55 55 55 55 55 55 55 55 55 55 54 54 55 55 55 55 56 56 57 58 59 59 61 64 64 65 67 67 67 66 65 64 64 63 63 63 63 63 62 62 61 61 61 61 61 61 61 61 61 61 61 61 61 61 61 61 61 61 62 62 62 63 63 63 64 64 64 64 64 64 65
43 43 44 44 45 45 45 45 46 46 47 51 49 46 46 47 48 49 51 51 51 53 56 55 55 55 55 55 55 54 55 55 54 54 54 55 55 55 54 54 54 54 54 54 54 54 54 55 55 55 56 57 58 59 60 63 64 64 65 66 67 67 67 67 66 66 65 64 64 63 62 62 62 61 62 62 62 62 62 62 62 62 61 61 61 61 61 61 61 61 61 61 62 62 62 63 63 63 63 63 64 64 64
42 43 44 44 45 45 44 44 45 45 45 46 47 47 48 47 48 49 50 50 51 52 53 53 54 54 54 54 54 54 54 54 53 53 53 53 54 54 54 53 53 53 54 53 53 53 53 53 54 54 55 55 57 58 59 62 63 64 64 65 66 67 67 68 68 68 68 66 64 63 63 62 62 62 62 62 63 63 63 63 63 62 62 62 62 62 62 62 61 61 61 62 62 62 62 62 63 63 63 63 63 63 63
42 43 43 44 44 44 44 44 44 45 45 44 45 46 46 46 46 48 49 50 50 50 49 50 51 51 51 52 53 53 54 54 53 52 52 52 53 54 54 53 53 53 54 53 52 52 51 52 52 53 53 55 55 57 59 61 63 64 64 64 65 66 67 68 68 69 69 67 65 64 63 63 63 63 63 63 63 62 62 63 63 63 63 63 63 63 63 62 62 62 62 62 62 62 62 62 63 63 63 63 63 63 63
42 43 43 43 43 43 43 44 44 44 44 44 45 45 44 45 46 46 48 49 49 49 49 49 49 50 50 52 53 54 55 54 53 52 53 52 53 54 54 54 54 54 54 53 52 51 50 50 50 51 52 53 54 55 58 60 62 63 63 64 65 65 66 67 68 69 69 67 65 64 64 63 63 63 63 63 62 62 61 62 63 63 63 63 63 63 63 63 63 63 63 63 63 63 63 63 63 63 63 63 63 63 63
42 42 41 41 42 43 43 44 44 44 45 44 44 44 44 44 46 47 48 48 48 48 48 48 49 50 51 52 54 55 55 55 55 54 54 54 54 54 55 55 55 55 54 54 53 51 50 50 49 49 50 50 52 54 55 59 61 62 62 63 64 65 66 67 68 68 69 68 66 64 64 64 63 63 63 63 63 62 62 62 63 64 64 64 64 64 64 64 64 64 64 64 64 64 63 63 63 63 63 63 63 63 63
42 42 41 41 42 43 44 44 44 44 44 44 44 45 44 44 46 47 48 48 47 47 49 49 49 50 52 53 55 55 56 56 55 55 55 55 55 55 55 55 55 55 55 55 54 53 52 50 50 49 49 50 50 51 54 57 59 60 61 62 63 64 64 66 67 68 69 68 67 65 64 64 64 64 64 65 64 64 64 64 64 65 66 66 66 66 66 67 67 66 66 65 65 64 64 64 64 64 63 63 63 63 63
41 42 42 42 42 43 44 44 44 44 44 44 44 45 45 45 46 47 47 48 48 48 49 49 50 50 52 54 55 56 57 56 55 55 55 55 55 55 54 54 54 54 54 54 54 54 53 52 51 50 50 49 49 50 51 54 57 59 60 61 62 63 64 64 66 67 68 68 68 67 66 65 65 66 67 67 67 67 67 67 67 67 68 68 68 68 68 68 68 68 67 66 66 65 65 65 64 64 64 64 64 63 63
41 41 41 41 41 42 43 43 44 44 44 44 45 45 45 45 46 46 47 47 48 48 48 49 50 50 51 53 54 55 57 56 55 55 54 54 54 54 53 53 53 52 53 53 53 53 53 53 52 52 51 50 50 49 50 51 55 57 59 59 60 61 62 63 64 66 67 68 68 68 67 66 66 67 68 68 68 68 68 68 68 68 68 68 68 68 68 68 68 68 68 67 67 67 66 66 65 65 64 64 64 64 64
41 41 41 41 42 42 42 43 43 44 43 44 44 45 45 44 45 46 46 47 48 48 49 50 50 51 51 52 53 54 55 55 54 54 53 53 52 52 52 51 51 51 51 51 52 52 52 51 51 52 52 51 50 50 49 50 52 55 58 58 59 59 60 62 63 64 65 66 67 67 67 66 66 66 66 67 67 67 67 67 66 66 66 67 67 67 66 66 66 67 67 68 68 68 67 67 66 66 65 65 64 64 64
41 41 41 42 42 42 42 43 43 43 43 43 44 44 44 44 44 46 46 46 47 48 49 50 50 51 52 52 52 53 54 54 53 53 52 52 51 51 50 49 49 49 48 49 49 50 50 50 50 50 51 51 50 50 49 49 50 52 55 56 57 58 59 60 61 62 63 64 64 65 65 65 65 65 65 65 65 66 65 65 65 65 65 65 66 66 65 66 66 67 68 68 68 68 68 67 67 66 66 66 65 65 65
41 41 41 42 42 42 42 42 43 43 43 43 43 43 43 44 44 45 46 46 46 47 47 48 49 50 50 51 51 51 52 52 52 51 51 51 50 50 49 48 47 46 46 46 46 46 47 47 47 48 49 50 50 50 49 49 49 50 52 54 55 57 57 58 59 60 61 62 63 64 64 64 64 64 64 64 64 64 64 64 64 64 64 65 65 65 65 65 66 67 68 68 69 68 68 68 67 67 67 66 66 66 66
41 41 41 41 41 41 41 42 42 42 42 42 42 42 42 42 43 44 45 46 45 45 45 46 47 49 50 50 51 51 51 51 51 50 50 50 49 49 48 47 46 46 45 44 44 45 45 46 46 46 47 48 48 49 48 49 49 49 50 52 53 55 56 57 58 59 60 61 61 62 63 63 63 63 63 64 64 64 64 64 64 64 64 64 64 65 65 65 66 67 68 68 68 68 68 68 68 68 67 67 67 67 67
40 40 40 41 41 41 41 41 41 42 42 42 41 40 41 42 44 45 46 46 46 46 45 46 47 48 50 50 50 50 50 50 50 49 49 48 48 47 47 46 46 45 44 44 44 44 44 45 45 45 46 46 47 47 47 48 48 48 49 50 51 53 54 55 56 57 58 59 60 61 61 62 62 62 62 63 63 63 64 64 64 64 64 64 64 64 65 66 67 68 68 68 67 67 67 68 68 68 68 68 68 67 67
40 40 40 41 41 41 42 41 41 41 40 41 41 41 41 43 45 46 47 47 47 48 48 48 49 50 50 50 50 50 49 48 48 48 47 47 47 47 46 45 45 44 44 43 43 43 43 44 44 44 45 45 46 46 46 46 47 47 48 49 50 50 51 53 54 55 56 57 58 59 60 60 61 61 61 62 62 63 63 63 64 64 64 64 64 64 65 66 67 67 68 67 66 66 66 66 66 67 68 68 68 68 68
39 40 40 40 40 41 41 41 40 39 39 41 42 42 43 44 45 46 47 47 47 48 49 50 50 50 50 49 48 48 47 47 46 46 46 46 46 46 46 45 44 43 43 43 42 42 42 43 43 43 44 44 45 45 45 45 45 46 46 47 48 48 49 49 51 52 54 55 57 58 59 59 59 60 60 60 61 61 62 63 63 64 64 64 64 65 65 66 66 67 67 66 65 65 65 65 65 65 66 67 68 68 68
39 40 40 39 39 39 41 41 39 38 40 41 42 43 44 44 45 46 46 46 47 47 48 48 49 49 48 47 46 46 46 46 45 45 45 45 45 45 45 45 44 44 43 42 42 42 42 42 42 42 43 43 44 44 44 44 44 44 45 46 47 47 47 47 48 50 51 53 55 56 57 57 58 58 59 59 59 60 61 62 63 63 64 64 64 65 65 65 66 66 66 65 64 64 64 64 64 64 65 66 67 67 67
39 40 41 40 39 39 40 39 38 38 41 41 42 42 42 44 45 46 46 46 46 47 47 47 46 46 46 45 45 45 46 45 45 44 44 44 44 44 45 45 45 44 44 43 42 42 42 42 42 42 42 43 43 44 44 43 43 42 43 44 46 47 46 46 46 48 49 50 51 53 55 56 56 57 57 58 58 59 60 61 62 62 63 64 64 64 64 65 65 65 65 64 64 64 64 64 64 64 64 65 66 66 66
39 40 41 40 40 39 40 37 37 39 41 42 42 42 42 44 45 46 46 46 46 46 46 46 46 45 44 44 44 44 44 44 44 43 44 44 44 44 44 44 44 45 45 44 43 42 42 42 42 42 42 42 43 43 43 43 42 41 41 42 44 46 46 45 46 46 47 48 49 51 53 54 55 55 56 56 57 58 58 59 60 61 62 62 63 64 64 64 64 64 64 64 63 64 64 64 63 64 64 64 65 65 66
39 40 41 40 40 39 38 36 37 40 42 42 42 42 43 44 45 45 45 45 45 45 45 46 45 43 42 43 42 42 42 43 43 43 43 43 43 43 43 43 44 44 44 45 44 43 43 43 42 42 42 42 42 42 43 42 42 41 41 41 42 44 44 45 45 46 46 46 47 48 50 51 52 53 54 55 55 56 57 58 59 59 60 61 62 62 63 63 64 64 63 63 63 63 63 63 63 63 63 64 65 65 65
39 39 40 40 39 38 36 36 37 40 41 42 42 43 43 44 44 45 45 45 45 44 44 45 44 43 41 41 41 41 41 42 42 42 42 42 42 42 42 43 43 43 44 44 43 43 43 44 44 43 43 43 43 42 42 42 42 41 41 40 40 41 43 44 45 45 46 46 46 46 47 49 50 51 52 53 54 54 55 56 57 57 59 59 60 61 61 62 63 63 63 63 63 63 63 63 62 63 63 64 64 65 65
38 39 39 39 38 37 36 37 38 40 41 42 42 43 43 43 44 44 45 45 45 44 44 44 43 42 42 41 41 41 41 41 41 41 42 42 41 41 41 42 42 42 43 43 42 42 42 43 44 44 44 44 43 42 42 42 42 41 41 40 40 40 41 41 42 44 45 45 45 45 46 47 48 49 50 50 51 52 53 54 55 55 56 58 59 59 60 61 62 62 62 62 62 62 62 62 62 62 62 63 64 64 64
38 38 37 37 37 37 36 38 39 40 41 42 42 42 43 43 43 43 44 44 44 43 43 43 42 41 41 40 40 40 40 40 41 41 41 41 41 41 41 41 41 41 41 41 41 41 41 42 44 44 44 43 43 43 42 42 42 42 41 41 41 40 39 40 41 42 44 44 44 45 45 45 46 47 48 49 50 50 51 52 53 54 55 56 57 58 59 59 60 61 61 61 62 62 62 62 62 62 62 62 63 63 64
38 37 37 37 37 37 37 38 39 41 41 41 42 42 42 42 43 43 43 43 43 42 42 42 42 41 41 40 39 39 39 39 40 41 41 41 41 41 40 41 41 41 41 41 41 40 41 42 42 42 42 42 42 43 43 43 43 42 42 41 41 40 39 39 40 41 42 43 44 44 44 44 44 45 46 46 47 48 49 50 51 52 53 54 55 56 57 58 59 59 60 60 61 61 61 61 61 61 61 62 62 62 63
38 38 38 37 37 37 36 37 39 41 41 41 42 42 42 42 42 43 43 42 42 42 41 41 41 41 41 41 40 39 39 39 40 41 41 41 41 41 40 39 39 40 40 40 40 40 40 41 41 41 41 41 42 42 43 44 44 43 43 42 41 41 40 40 40 40 41 42 43 43 43 43 43 44 44 44 44 45 47 48 49 50 51 52 53 55 56 56 57 58 59 59 59 60 60 60 60 60 61 61 61 62 62
38 38 39 37 37 37 36 37 39 41 41 41 42 42 42 42 42 42 41 41 41 41 41 41 41 41 41 41 41 39 39 39 39 39 39 39 39 39 40 38 38 38 39 39 39 39 39 39 39 39 40 41 41 41 42 43 43 42 42 42 42 41 41 40 39 39 39 41 42 43 43 43 43 43 43 43 43 43 45 46 48 49 50 50 51 53 54 55 55 56 57 58 58 59 59 59 59 59 60 60 60 61 61
39 38 38 37 37 37 37 37 38 40 41 41 42 42 41 41 41 41 41 41 41 41 41 41 40 39 39 39 39 38 38 37 37 36 36 36 36 37 37 37 37 37 37 38 39 40 40 38 38 38 39 39 40 40 41 41 41 41 41 41 41 41 41 41 40 39 40 41 41 42 42 42 42 42 43 43 43 43 44 44 46 47 48 49 50 51 52 53 53 55 56 57 57 57 58 58 58 59 59 59 59 59 60
40 39 37 37 37 38 38 37 39 41 40 41 41 41 39 39 39 40 41 41 40 40 41 40 39 38 37 36 36 37 36 37 36 35 34 34 33 33 34 34 35 35 36 37 39 40 40 38 37 37 37 38 38 39 39 40 40 41 41 41 41 40 40 40 40 40 40 40 41 41 41 41 42 42 42 42 42 42 43 43 43 44 46 48 48 49 50 51 52 53 54 56 56 57 57 57 58 58 58 58 58 58 59
39 39 38 38 38 38 39 38 39 40 40 40 40 39 38 39 40 41 41 40 39 39 39 39 39 38 36 35 36 37 37 37 37 35 32 32 32 32 32 32 32 33 34 36 37 38 38 37 37 36 36 37 37 38 38 39 39 39 40 40 40 40 39 39 39 39 40 39 39 39 40 41 41 41 41 41 41 42 42 42 42 43 45 46 46 47 48 50 51 52 53 55 55 56 56 56 57 57 57 58 57 57 57
38 39 39 39 39 39 38 38 38 40 40 41 41 40 41 41 41 40 38 38 38 38 38 38 39 40 39 37 37 38 39 38 37 34 31 31 31 31 31 31 31 32 32 33 36 37 37 37 36 36 35 36 36 37 37 38 38 37 38 39 39 40 40 39 39 38 38 37 38 38 39 40 41 41 41 41 41 41 41 42 42 43 43 44 44 45 46 47 49 50 52 53 54 55 55 55 56 57 57 57 57 57 56
38 39 39 39 39 38 37 37 39 41 43 41 40 39 39 38 38 38 37 37 37 37 37 37 37 38 39 39 39 38 38 39 38 36 32 31 31 31 30 31 30 29 29 30 32 34 35 34 35 35 35 35 35 36 37 37 37 37 37 37 38 39 39 38 38 37 36 36 37 38 38 39 40 41 41 40 40 40 41 41 41 42 42 43 43 44 45 46 47 49 50 51 53 54 54 54 55 56 56 56 56 56 56
37 37 39 40 39 38 38 38 38 39 42 40 39 39 38 38 38 38 38 37 37 37 37 37 37 37 37 38 38 39 40 39 38 37 36 33 32 31 31 30 28 26 27 28 29 30 31 32 32 32 33 34 34 34 36 37 37 37 37 37 37 38 38 38 37 37 36 36 36 37 37 39 40 40 40 39 39 39 40 40 41 41 41 42 43 43 44 46 46 48 48 49 51 53 53 54 54 55 55 56 55 55 55
36 37 38 39 39 39 38 38 37 37 37 39 39 39 38 38 38 38 37 37 37 37 38 38 38 37 36 36 36 37 39 40 39 37 36 35 33 31 30 28 27 27 26 27 26 26 28 29 30 31 32 33 33 33 34 36 36 37 36 36 37 38 38 38 37 36 36 36 36 37 37 38 38 39 39 39 39 39 39 39 40 40 41 41 42 43 43 45 46 47 47 48 49 50 52 53 54 54 55 55 55 55 55
35 36 37 38 39 39 39 37 37 37 37 38 38 38 37 37 37 37 37 36 36 36 37 37 37 35 35 35 35 36 37 39 39 38 37 35 33 32 31 32 31 28 25 24 24 25 28 28 28 29 30 32 32 32 33 34 35 37 38 37 37 37 38 37 36 35 35 35 36 37 37 38 38 38 38 39 38 38 39 39 39 39 40 41 42 43 44 45 46 46 47 47 48 49 51 52 53 54 54 55 55 55 55
35 35 36 37 37 37 37 37 37 37 37 38 38 38 37 37 37 35 34 34 34 34 36 36 35 34 36 36 36 36 36 37 38 38 38 37 37 37 35 32 28 23 20 21 23 25 28 27 27 28 28 30 31 32 31 32 33 35 37 37 36 37 38 37 36 35 34 34 35 36 37 37 38 38 38 38 38 38 38 38 38 39 40 41 41 42 43 43 44 45 46 46 47 48 50 51 52 53 54 54 55 55 54
35 35 35 36 36 37 37 37 37 37 38 39 39 38 38 37 36 35 35 34 34 34 34 35 34 33 34 36 37 37 36 37 39 40 40 38 38 37 33 32 31 28 24 23 24 26 27 27 27 27 27 29 30 32 31 32 32 33 35 35 35 36 37 37 36 35 35 34 34 35 36 37 37 37 38 38 37 37 38 38 38 38 39 39 41 41 42 42 43 44 46 46 46 48 49 50 51 52 53 54 54 54 53
35 35 35 35 35 36 37 38 38 38 39 40 39 38 38 38 37 37 37 36 35 34 32 34 35 34 33 34 35 37 36 36 37 38 39 38 38 37 35 35 34 32 31 30 30 30 28 26 25 25 26 26 27 29 31 31 32 32 32 33 34 35 35 36 36 36 35 34 34 34 34 36 37 37 37 37 37 37 38 38 38 38 38 38 39 41 42 42 43 44 45 46 47 48 49 50 50 51 53 53 53 53 53
35 35 34 35 35 36 37 37 38 39 39 41 40 38 38 38 37 37 37 35 35 35 33 35 36 36 37 34 34 35 35 35 35 35 35 37 38 37 36 36 37 37 36 33 32 32 31 28 26 25 25 24 24 25 28 29 30 32 32 32 33 34 34 36 36 36 36 35 35 34 34 35 37 37 36 36 36 37 37 37 37 37 37 38 39 40 42 42 42 43 45 46 47 48 48 48 50 50 52 53 53 53 52
35 35 35 35 35 36 37 37 37 38 39 41 40 39 38 38 37 37 36 36 37 38 35 35 35 36 37 34 33 33 34 34 32 32 32 35 37 37 37 37 36 36 36 34 32 31 31 29 28 27 26 24 23 23 24 26 28 31 31 32 32 33 34 35 36 36 36 36 35 35 34 34 35 36 36 36 36 36 36 37 37 37 37 37 38 39 41 41 41 41 43 45 46 47 47 48 49 50 51 52 52 52 52
36 36 37 36 35 36 36 37 38 38 39 41 40 39 38 38 37 37 37 37 37 37 36 35 35 35 36 35 34 34 34 34 32 31 32 34 36 37 38 37 37 37 37 36 34 33 32 29 29 28 28 26 24 23 22 24 26 28 29 31 32 32 33 34 35 35 36 35 35 35 34 34 34 34 35 36 36 36 36 36 37 37 37 37 37 39 40 41 40 40 41 44 45 46 46 47 48 49 50 51 52 52 51